Weather History for KCAR - July, 2013

Change the Weather History Date:

Sunday, July 14, 2013

  Actual Average Record
Temperature  
Mean Temperature 74 °F 66 °F  
Max Temperature 91 °F 76 °F 91 °F (2013)
Min Temperature 56 °F 56 °F 45 °F (1970)
Degree Days  
Heating Degree Days 0 2  
Month to date heating degree days 3 32  
Since 1 June heating degree days 181 197  
Since 1 July heating degree days 3 32  
Cooling Degree Days 9 3  
Month to date cooling degree days 75 32  
Year to date cooling degree days 106 71  
Since 1 June cooling degree days 98 66  
Growing Degree Days 23 (Base 50)    
Moisture  
Dew Point 55 °F    
Average Humidity 60    
Maximum Humidity 93    
Minimum Humidity 27    
Precipitation  
Precipitation 0.00 in 0.14 in 1.27 in (2005)
Month to date precipitation 0.03 1.92  
Year to date precipitation 20.11 18.82  
Snow  
Snow 0.00 in 0.00 in 0.00 in (2002)
Month to date snowfall 0.0 0.0  
Since 1 June snowfall 0.0 0.0  
Since 1 July snowfall 0.0 0.0  
Snow Depth 0.00 in    
Sea Level Pressure  
Sea Level Pressure 30.19 in    
Wind  
Wind Speed 3 mph (West)    
Max Wind Speed 10 mph    
Max Gust Speed 15 mph    
Visibility 10 miles    
Events      
T = Trace of Precipitation, MM = Missing Value Source: NWS Daily Summary

Daily Weather History Graph

Daily Weather History Graph

Search for Another Location

Airport or City:

Trip Planner

Search our weather history database for the weather conditions in past years. The results will help you decide how hot, cold, wet, or windy it might be!

Date:

Astronomy

Jul. 14, 2013 Rise Set
Actual Time 4:51 AM EDT 8:23 PM EDT
Civil Twilight 4:13 AM EDT 9:01 PM EDT
Nautical Twilight 3:23 AM EDT 9:51 PM EDT
Astronomical Twilight 2:15 AM EDT 10:58 PM EDT
Moon 11:32 AM EDT (7/14) 11:04 PM EDT (7/14)
Length of Visible Light 16h 47m
Length of Day
15h 31m
Waxing Crescent, 35% of the Moon is Illuminated
Jul 14
Waxing Crescent
Jul 15
First Quarter
Jul 22
Full
Jul 29
Last Quarter
Aug 6
New

Hourly Weather History & Observations

Time (EDT) Temp. Heat Index Dew Point Humidity Pressure Visibility Wind Dir Wind Speed Gust Speed Precip Events Conditions
12:54 AM 62.1 °F - 55.9 °F 80% 30.22 in 10.0 mi Calm Calm - N/A   Clear
1:54 AM 61.0 °F - 55.9 °F 83% 30.22 in 10.0 mi SW 3.5 mph - N/A   Clear
2:54 AM 57.9 °F - 54.0 °F 87% 30.22 in 10.0 mi Calm Calm - N/A   Clear
3:54 AM 57.0 °F - 54.0 °F 89% 30.23 in 10.0 mi WSW 3.5 mph - N/A   Clear
4:54 AM 55.9 °F - 54.0 °F 93% 30.23 in 10.0 mi SW 4.6 mph - N/A   Clear
5:54 AM 57.9 °F - 55.0 °F 90% 30.24 in 10.0 mi Calm Calm - N/A   Clear
6:54 AM 62.1 °F - 55.9 °F 80% 30.25 in 10.0 mi SW 3.5 mph - N/A   Clear
7:54 AM 66.9 °F - 59.0 °F 76% 30.25 in 10.0 mi Calm Calm - N/A   Clear
8:54 AM 72.0 °F - 59.0 °F 64% 30.25 in 10.0 mi Variable 3.5 mph - N/A   Clear
9:54 AM 78.1 °F - 62.1 °F 58% 30.22 in 10.0 mi West 4.6 mph - N/A   Clear
10:54 AM 82.0 °F 81.7 °F 57.0 °F 42% 30.22 in 10.0 mi NW 5.8 mph - N/A   Clear
11:54 AM 84.9 °F 83.7 °F 55.9 °F 37% 30.21 in 10.0 mi Calm Calm - N/A   Clear
12:54 PM 88.0 °F 86.1 °F 55.0 °F 32% 30.19 in 10.0 mi Variable 4.6 mph - N/A   Clear
1:54 PM 90.0 °F - 51.1 °F 26% 30.18 in 10.0 mi Calm Calm - N/A   Clear
2:54 PM 90.0 °F - 52.0 °F 27% 30.16 in 10.0 mi NW 6.9 mph - N/A   Clear
3:54 PM 90.0 °F - 51.1 °F 26% 30.15 in 10.0 mi Variable 6.9 mph - N/A   Clear
4:54 PM 90.0 °F - 51.1 °F 26% 30.14 in 10.0 mi Variable 4.6 mph - N/A   Clear
5:54 PM 89.1 °F 86.7 °F 53.1 °F 29% 30.13 in 10.0 mi WNW 6.9 mph - N/A   Clear
6:54 PM 88.0 °F 86.1 °F 55.0 °F 32% 30.13 in 10.0 mi Calm Calm - N/A   Clear
7:54 PM 82.0 °F 82.1 °F 59.0 °F 45% 30.13 in 10.0 mi Calm Calm - N/A   Clear
8:54 PM 78.1 °F - 57.0 °F 48% 30.13 in 10.0 mi West 3.5 mph - N/A   Clear
9:54 PM 75.9 °F - 55.9 °F 50% 30.13 in 10.0 mi Calm Calm - N/A   Clear
10:54 PM 72.0 °F - 55.9 °F 57% 30.13 in 10.0 mi West 3.5 mph - N/A   Clear
11:54 PM 71.1 °F - 57.0 °F 61% 30.13 in 10.0 mi Calm Calm - N/A   Clear